Weather Roundup
Issued by NWS Chicago, IL

Home | Current Version | Previous Version | Graphics & Text | Print | Product List | Glossary On
Versions: 1 2 3 4 5 6 7 8 9 10 11 12 13 14 15 16 17 18 19 20 21 22 23 24 25 26 27 28 29 30 31 32 33 34 35 36 37 38 39 40 41 42 43 44 45 46 47 48 49 50
000
NZUS59 KLOT 232002
HRRLOT

CHICAGO AREA WEATHER ROUNDUP
NATIONAL WEATHER SERVICE CHICAGO/ROMEOVILLE IL
300 PM CDT THU MAR 23 2017

NOTE: "FAIR" INDICATES FEW OR NO CLOUDS BELOW 12,000 FEET WITH NO
SIGNIFICANT WEATHER AND/OR OBSTRUCTIONS TO VISIBILITY.

* THESE STATIONS ARE NOT UNDER NWS QUALITY CONTROL. THEY ALSO MAY NOT
  REPORT WEATHER SUCH AS PRECIPITATION OR FOG.

ILZ005-006-012>014-019>023-232100-
NORTHEAST ILLINOIS

CITY           SKY/WX    TMP DP  RH WIND       PRES   REMARKS
OHARE          CLOUDY    49  23  36 S14G22    30.21F
MIDWAY         CLOUDY    48  23  37 S14G22    30.22F
AURORA         CLOUDY    48  25  40 SE18      30.19F
LANSING*       CLOUDY    46  29  51 S15       30.24F
JOLIET*        CLOUDY    50  27  40 SE17G23   30.21F
WAUKEGAN       CLOUDY    38  25  59 SE14G22   30.21F
DUPAGE AIRPORT CLOUDY    47  25  42 S17       30.20F
WHEELING       CLOUDY    47  23  38 SE8       30.21F
MORRIS*        CLOUDY    48  24  39 SE18      30.19F
NORTHERLY ISL    N/A     45  25  45 SE10        N/A
$$

WIZ051-052-058>065-066-070>072-232100-
SOUTHEAST WISCONSIN

CITY           SKY/WX    TMP DP  RH WIND       PRES   REMARKS
MILWAUKEE      CLOUDY    42  23  46 SE15G22   30.21F
KENOSHA*       CLOUDY    40  24  53 SE15      30.21F
RACINE*        CLOUDY    39  24  55 S18G26    30.23F
WAUKESHA       CLOUDY    43  23  45 SE13G20   30.19F
WEST BEND      CLOUDY    41  25  52 SE14      30.17F
$$

INZ001>003-010>013-019-020-232100-
NORTHWEST INDIANA

CITY           SKY/WX    TMP DP  RH WIND       PRES   REMARKS
GARY*          PTSUNNY   48  18  29 SE12G23   30.24F
MICHIGAN CITY* NOT AVBL
RENSSELAER*    NOT AVBL
VALPARAISO     PTSUNNY   47  21  35 S16G23    30.26F
$$

LMZ740>746-232100-
SOUTHERN LAKE MICHIGAN

STATION/POSITION TIME  SKY/WX   TEMP WIND        PRES    VSBY
                                AIR  DIR/SP/G
                 (UTC)          (F)  (DEG/KT/KT) (MB)    (MI)
HARRISON CRIB    1940            40  140/ 16/ 17   N/A
BURNHAM HARBOR   2000            45  120/  6/ 14   N/A
CALUMET HARBOR   1930            45  160/ 14/ 19 1023.3F
BURNS HARBOR     1940            46  140/ 12/ 19 1024.7F
MICHIGAN CITY    1940            43  140/ 13/ 18   N/A
$$

ABBREVIATIONS USED IN REMARKS
   TC - TEMPERATURE IN CELSIUS
  WCI - WIND CHILL INDEX
   HX - HEAT INDEX
  VSB - VISIBILITY
$$



USA.gov is the U.S. government's official web portal to all federal, state and local government web resources and services.